Regional Weather Roundup
Issued by NWS Green Bay, WI

Home | Current Version | Previous Version | Graphics & Text | Print | Product List | Glossary Off
Versions: 1 2 3 4 5 6 7 8 9 10 11 12 13 14 15 16 17 18 19 20 21 22 23 24 25 26 27 28 29 30 31 32 33 34 35 36 37 38 39 40 41 42 43 44 45 46 47 48 49 50

000
ASUS43 KGRB 210359
RWRGRB

NORTH-CENTRAL AND NORTHEAST WISCONSIN REGIONAL WEATHER ROUNDUP
NATIONAL WEATHER SERVICE GREEN BAY WI
1100 PM CDT WED AUG 20 2014

WIZ005-009-010>012-018-019-210500-
NORTH CENTRAL WISCONSIN

CITY           SKY/WX    TMP DP  RH WIND       PRES   REMARKS
IRONWOOD       CLEAR     61  61 100 CALM      29.94R
MANITOWISH WTR NOT AVBL
ARBOR VITAE    NOT AVBL
EAGLE RIVER    NOT AVBL
LAND O LAKES   NOT AVBL
RHINELANDER    CLOUDY    60  59  96 CALM      29.99R
PHILLIPS       PTCLDY    58  58 100 CALM      29.97R
ANTIGO         NOT AVBL
TOMAHAWK       NOT AVBL
MERRILL        NOT AVBL
$$

WIZ013-073-210500-
NORTHEAST WISCONSIN

CITY           SKY/WX    TMP DP  RH WIND       PRES   REMARKS
IRON MOUNTAIN  CLOUDY    64  61  90 CALM      29.95S
MARINETTE      CLOUDY    66  63  88 E5        29.94R
$$

WIZ017-030-035>037-045-210500-
CENTRAL WISCONSIN

CITY           SKY/WX    TMP DP  RH WIND       PRES   REMARKS
MEDFORD        NOT AVBL
WAUSAU         CLEAR     62  61  96 CALM      29.95S
MOSINEE        NOT AVBL
MARSHFIELD     MOCLDY    64  61  90 E5        29.95S
WISC RAPIDS    PTCLDY    66  62  87 E3        29.96S
STEVENS POINT  NOT AVBL
WAUPACA        NOT AVBL
SHAWANO        PTCLDY    65  62  91 SW3       29.95S
CLINTONVILLE   NOT AVBL
$$

WIZ038-039-048-051-210500-
FOX VALLEY

CITY           SKY/WX    TMP DP  RH WIND       PRES   REMARKS
NWS GREEN BAY  CLEAR     62  61  96 S3        29.95R
APPLETON       MOCLDY    66  61  82 CALM      29.95R
OSHKOSH        PTCLDY    64  63  96 S5        29.95R
FOND DU LAC    MOCLDY    67  63  87 E3        29.96R
$$

WIZ022-050-052-210500-
EAST CENTRAL WISCONSIN

CITY           SKY/WX    TMP DP  RH WIND       PRES   REMARKS
STURGEON BAY   CLOUDY    64  61  88 S5        29.96R
MANITOWOC      FOG       64  64 100 CALM      29.96R VSB 3/4
SHEBOYGAN      PTCLDY    63  62  97 CALM      29.96R FOG
$$

LMZ563-521-522-541>543-210500-
LAKESHORE

STATION/POSITION TIME  TEMP    WIND        PRES    VSBY  WAVE
                       AIR SEA DIR/SP/G                  HT/PER
                 (UTC) (F)     (DEG/KT/KT) (MB)    (MI)  (FT/S)
SHEBOYGAN LKSHOR 0300   66 64   60/  2/  2 1014.1R
KEWAUNEE LKSHORE 0300   63     270/  2/  3 1013.4R
TWO RIVERS CG    0300   64                   N/A           0
NORTHPORT PIER   0300   63     200/  3/  6 1013.9R
N MID LAKE BUOY  0300   63 62  130/  2/  2 1013.3S         0
S GREEN BAY BUOY 0300   69     VRB  6      1015.0R
SISTER BAY LKSHO 0300   63        CALM       N/A
CHAMBERS ISLAND  0300   65     140/  2/  4 1013.9R
MENOMINEE LKSHOR 0300   67     120/  5/  6 1014.5R
$$


USA.gov is the U.S. government's official web portal to all federal, state and local government web resources and services.